Weather Roundup
Issued by NWS

Home | Current Version | Previous Version | Graphics & Text | Print | Product List | Glossary Off
Versions: 1 2 3 4 5 6 7 8 9 10 11 12 13 14 15 16 17 18 19 20 21 22 23 24 25 26 27 28 29 30 31 32 33 34 35 36 37 38 39 40 41 42 43 44 45 46 47 48 49 50

000
NZUS93 KARX 210159
HRRWXR

CURRENT HOURLY OBSERVATIONS ACROSS
MUCH OF THE UPPER MISSISSIPPI VALLEY
NATIONAL WEATHER SERVICE LA CROSSE WI
800 PM CST MON FEB 20 2017


...SOUTHEAST MINNESOTA...


CITY           SKY/WX    TMP DP  RH WIND       PRES   REMARKS
ROCHESTER      LGT RAIN  51  51 100 S13       29.76S FOG
ROCHESTER/MAYO CLOUDY    53  53 100 S10       29.75F
WINONA         DRIZZLE   55  54  94 SW7       29.77R
AUSTIN         CLOUDY    54  52  94 SW12G17   29.77S FOG
ALBERT LEA     CLOUDY    50  50 100 W18G26    29.78R
DODGE CENTER   NOT AVBL
PRESTON        CLOUDY    52  51  96 S13       29.76F FOG
OWATONNA       CLOUDY    52  48  87 SW18G24   29.75R
FARIBAULT      CLOUDY    54  52  94 SW14G20   29.74R
$$

...ELSEWHERE IN MINNESOTA...


CITY           SKY/WX    TMP DP  RH WIND       PRES   REMARKS
MINNEAPOLIS    CLOUDY    55  51  86 SW14G21   29.69R
INTNL FALLS    LGT RAIN  41  39  93 SW6       29.53S FOG
DULUTH         FOG       42  41  96 S8        29.60R VSB 1/4
RED WING       CLOUDY    54  52  94 SW10      29.71R
REDWOOD FALLS  CLEAR     43  39  86 NW13      29.80R
MANKATO          N/A     49  46  90 W22G29    29.77R
WORTHINGTON    CLEAR     44  41  89 W15       29.86R
FAIRMONT       PTCLDY    48  43  82 W17       29.82R
$$

...SOUTHWEST WISCONSIN...


CITY           SKY/WX    TMP DP  RH WIND       PRES   REMARKS
LA CROSSE      LGT RAIN  55  54  96 S13       29.78F
PRAIRIE DU CHI DRIZZLE   55  54  97 CALM      29.84R
BOSCOBEL       LGT RAIN  58  56  93 SW6       29.85R
LONE ROCK      LGT RAIN  58  55  90 S14       29.85R FOG
PLATTEVILLE    CLOUDY    55  55 100 S9        29.86F
FORT MC COY    RAIN      55  55  98 S3        29.80F
CAMP DOUGLAS   LGT RAIN  55  55 100 S9        29.81R
MAUSTON-NEW LI RAIN      57  55  95 S8        29.81R
VIROQUA        CLOUDY    55  55 100 SW10      29.83S
WIS DELLS      RAIN      55  52  91 S13       29.82S
$$

...ELSEWHERE IN WISCONSIN...


CITY           SKY/WX    TMP DP  RH WIND       PRES   REMARKS
MILWAUKEE      CLOUDY    59  41  51 S22G28    29.93S
MADISON        LGT RAIN  57  52  83 S9        29.85S
GREEN BAY      LGT RAIN  51  45  79 SE22G30   29.85F
EAU CLAIRE     NOT AVBL
BLACK RVR FLS  RAIN      55  55 100 SW5       29.78F
MEDFORD        RAIN      48  47  99 S18G26    29.77R VSB 1
WAUSAU         HVY RAIN  47  47 100 S8        29.78R FOG
WIS RAPIDS     RAIN      53  53 100 SW8       29.81R FOG
MARSHFIELD     RAIN      52  51  97 S13       29.77S FOG
RICE LAKE      RAIN      48  48  97 CALM      29.71F
$$

...NORTHEAST IOWA...


CITY           SKY/WX    TMP DP  RH WIND       PRES   REMARKS
WATERLOO       CLOUDY    55  54  96 S9        29.83S FOG
DUBUQUE        CLOUDY    54  53  97 S7        29.86S FOG
DECORAH        CLOUDY    55  54  94 S9        29.80S FOG
MASON CITY     CLOUDY    53  51  93 W15G29    29.83R
CHARLES CITY   CLOUDY    55  55 100 S18G25    29.79F FOG
OELWEIN        CLOUDY    54  54 100 S13       29.84F FOG
$$

...ELSEWHERE IN IOWA...


CITY           SKY/WX    TMP DP  RH WIND       PRES   REMARKS
DES MOINES     CLOUDY    60  56  86 SW8       29.86R
IOWA CITY      LGT RAIN  60  56  86 SW5       29.89R
FORT DODGE     CLOUDY    48  45  87 W7        29.86R
MARSHALLTOWN   LGT RAIN  57  57 100 S9        29.83S
CEDAR RAPIDS   CLOUDY    54  54 100 S8        29.87R
$$

...NORTHERN ILLINOIS...


CITY           SKY/WX    TMP DP  RH WIND       PRES   REMARKS
CHICAGO-OHARE  CLOUDY    62  44  51 S17G26    29.94F
CHICAGO-MIDWAY CLOUDY    62  43  49 S10G23    29.95F
MOLINE         CLOUDY    64  56  75 SW10      29.89R
ROCKFORD       CLOUDY    62  51  67 S18G28    29.90S
PEORIA         MOCLDY    66  51  58 S14       29.91F
$$

NOTE: "FAIR" INDICATES FEW OR NO CLOUDS BELOW 12,000 FEET WITH NO
SIGNIFICANT WEATHER AND/OR OBSTRUCTIONS TO VISIBILITY. WIND
SPEEDS ARE IN MILES-PER-HOUR.




USA.gov is the U.S. government's official web portal to all federal, state and local government web resources and services.